| time (UTC) | temp F | wind direction | speed MPH | gust MPH | rain 1hr in | rain 24hr in | rain mn in | humidity % | barometer mb |
| 20260903004525 | 66 | 204 | 0.0 | 0.0 | 0.00 | 0.02 | 0.02 | 93 | 1016.4 |
| 20260903003024 | 66 | 217 | 0.0 | 0.0 | 0.00 | 0.02 | 0.02 | 93 | 1016.4 |
| 20260903001529 | 66 | 148 | 0.0 | 1.0 | 0.00 | 0.02 | 0.02 | 93 | 1016.3 |
| 20260903000023 | 66 | 135 | 0.0 | 6.0 | 0.00 | 0.02 | 0.02 | 93 | 1016.3 |
| 20260902234522 | 66 | 186 | 0.0 | 2.0 | 0.00 | 0.02 | 0.02 | 93 | 1016.4 |
| 20260902233022 | 66 | 124 | 2.0 | 10.0 | 0.00 | 0.02 | 0.02 | 92 | 1015.3 |
| 20260902231522 | 67 | 224 | 0.0 | 7.0 | 0.00 | 0.02 | 0.02 | 92 | 1015.5 |
| 20260902230021 | 67 | 124 | 2.0 | 6.0 | 0.00 | 0.02 | 0.02 | 91 | 1014.7 |
| 20260902224519 | 67 | 144 | 0.0 | 9.0 | 0.00 | 0.02 | 0.02 | 91 | 1015.1 |
| 20260902223018 | 67 | 123 | 3.0 | 12.0 | 0.00 | 0.02 | 0.02 | 91 | 1015.6 |
| 20260902221529 | 68 | 128 | 0.0 | 8.0 | 0.00 | 0.02 | 0.02 | 91 | 1016.7 |
| 20260902220011 | 68 | 146 | 0.0 | 5.0 | 0.00 | 0.02 | 0.02 | 90 | 1017.0 |
| 20260902214510 | 69 | 125 | 0.0 | 4.0 | 0.00 | 0.02 | 0.02 | 90 | 1017.5 |
| 20260902213009 | 69 | 111 | 0.0 | 8.0 | 0.00 | 0.02 | 0.02 | 90 | 1017.4 |
| 20260902211509 | 69 | 141 | 0.0 | 6.0 | 0.00 | 0.02 | 0.02 | 90 | 1017.4 |
| 20260902210010 | 69 | 146 | 3.0 | 9.0 | 0.00 | 0.02 | 0.02 | 88 | 1017.4 |
| 20260902204507 | 69 | 124 | 0.0 | 7.0 | 0.00 | 0.02 | 0.02 | 90 | 1017.2 |
| 20260902203009 | 69 | 101 | 3.0 | 10.0 | 0.00 | 0.02 | 0.02 | 89 | 1017.2 |
| 20260902201506 | 69 | 132 | 0.0 | 8.0 | 0.00 | 0.02 | 0.02 | 90 | 1017.2 |
| 20260902200003 | 69 | 108 | 2.0 | 8.0 | 0.00 | 0.02 | 0.02 | 90 | 1017.4 |
| 20260902194501 | 69 | 136 | 2.0 | 11.0 | 0.00 | 0.02 | 0.02 | 91 | 1017.4 |
| 20260902193001 | 69 | 151 | 5.0 | 11.0 | 0.00 | 0.02 | 0.02 | 90 | 1017.3 |
| 20260902191607 | 69 | 119 | 5.0 | 12.0 | 0.00 | 0.02 | 0.02 | 90 | 1017.8 |
| 20260902190059 | 69 | 172 | 1.0 | 5.0 | 0.00 | 0.02 | 0.02 | 91 | 1017.6 |
| 20260902184558 | 68 | 159 | 3.0 | 10.0 | 0.00 | 0.02 | 0.02 | 91 | 1017.6 |
| 20260902183135 | 68 | 124 | 4.0 | 9.0 | 0.00 | 0.02 | 0.02 | 92 | 1018.0 |
| 20260902181552 | 67 | 105 | 6.0 | 10.0 | 0.00 | 0.02 | 0.02 | 93 | 1018.1 |
| 20260902180052 | 66 | 148 | 1.0 | 8.0 | 0.00 | 0.02 | 0.02 | 94 | 1018.5 |
| 20260902174551 | 66 | 163 | 4.0 | 11.0 | 0.00 | 0.02 | 0.02 | 94 | 1018.2 |
| 20260902173056 | 65 | 144 | 5.0 | 13.0 | 0.01 | 0.02 | 0.02 | 96 | 1018.3 |
| 20260902171603 | 65 | 139 | 3.0 | 10.0 | 0.01 | 0.02 | 0.02 | 97 | 1018.1 |
| 20260902170050 | 64 | 82 | 1.0 | 5.0 | 0.01 | 0.02 | 0.02 | 98 | 1018.7 |
| 20260902164600 | 64 | 205 | 0.0 | 0.0 | 0.01 | 0.02 | 0.02 | 97 | 1018.8 |
| 20260902163049 | 64 | 163 | 0.0 | 10.0 | 0.00 | 0.01 | 0.01 | 97 | 1018.2 |
| 20260902161548 | 64 | 138 | 0.0 | 8.0 | 0.00 | 0.01 | 0.01 | 97 | 1018.6 |
| 20260902160051 | 64 | 136 | 2.0 | 8.0 | 0.01 | 0.01 | 0.01 | 97 | 1018.4 |
| 20260902154554 | 64 | 148 | 2.0 | 8.0 | 0.01 | 0.01 | 0.01 | 97 | 1018.8 |
| 20260902153046 | 64 | 173 | 0.0 | 2.0 | 0.01 | 0.01 | 0.01 | 97 | 1018.9 |
| 20260902151548 | 64 | 102 | 1.0 | 10.0 | 0.01 | 0.01 | 0.01 | 97 | 1018.4 |
| 20260902150046 | 64 | 128 | 3.0 | 9.0 | 0.00 | 0.00 | 0.00 | 96 | 1018.7 |
| 20260902144545 | 64 | 122 | 2.0 | 10.0 | 0.00 | 0.01 | 0.00 | 96 | 1019.0 |
| 20260902143044 | 64 | 187 | 0.0 | 6.0 | 0.00 | 0.01 | 0.00 | 96 | 1019.2 |
| 20260902141544 | 64 | 117 | 0.0 | 1.0 | 0.00 | 0.01 | 0.00 | 96 | 1019.0 |
| 20260902140043 | 64 | 144 | 1.0 | 7.0 | 0.00 | 0.01 | 0.00 | 96 | 1018.9 |
| 20260902134543 | 64 | 134 | 0.0 | 4.0 | 0.00 | 0.01 | 0.00 | 96 | 1019.0 |
| 20260902133042 | 64 | 144 | 0.0 | 3.0 | 0.00 | 0.01 | 0.00 | 96 | 1018.7 |
| 20260902131602 | 64 | 146 | 0.0 | 7.0 | 0.00 | 0.01 | 0.00 | 96 | 1018.9 |
| 20260902130052 | 64 | 140 | 1.0 | 5.0 | 0.00 | 0.01 | 0.00 | 96 | 1019.0 |
| 20260902124541 | 64 | 167 | 0.0 | 3.0 | 0.00 | 0.01 | 0.00 | 96 | 1019.2 |
| 20260902123039 | 64 | 180 | 0.0 | 5.0 | 0.00 | 0.01 | 0.00 | 96 | 1018.8 |
| 20260902121545 | 64 | 142 | 0.0 | 5.0 | 0.00 | 0.01 | 0.00 | 96 | 1018.9 |
| 20260902120037 | 64 | 137 | 1.0 | 4.0 | 0.00 | 0.01 | 0.00 | 96 | 1018.8 |
| 20260902114536 | 64 | 142 | 0.0 | 3.0 | 0.00 | 0.07 | 0.00 | 96 | 1018.7 |
| 20260902113035 | 64 | 140 | 0.0 | 5.0 | 0.00 | 0.07 | 0.00 | 96 | 1018.5 |
| 20260902111541 | 64 | 134 | 1.0 | 5.0 | 0.00 | 0.07 | 0.00 | 96 | 1018.3 |
| 20260902110043 | 64 | 112 | 1.0 | 9.0 | 0.00 | 0.07 | 0.00 | 95 | 1018.3 |
| 20260902104539 | 64 | 130 | 1.0 | 10.0 | 0.00 | 0.10 | 0.00 | 95 | 1018.6 |
| 20260902103037 | 64 | 117 | 1.0 | 11.0 | 0.00 | 0.10 | 0.00 | 95 | 1018.8 |
| 20260902101531 | 64 | 134 | 3.0 | 8.0 | 0.00 | 0.10 | 0.00 | 95 | 1018.8 |
| 20260902100031 | 64 | 144 | 3.0 | 8.0 | 0.00 | 0.10 | 0.00 | 95 | 1018.5 |
| 20260902094528 | 65 | 114 | 2.0 | 11.0 | 0.00 | 0.25 | 0.00 | 94 | 1018.7 |
| 20260902093036 | 65 | 101 | 1.0 | 7.0 | 0.00 | 0.25 | 0.00 | 95 | 1018.4 |
| 20260902091527 | 65 | 123 | 0.0 | 5.0 | 0.00 | 0.25 | 0.00 | 95 | 1018.4 |
| 20260902090025 | 65 | 123 | 0.0 | 4.0 | 0.00 | 0.25 | 0.00 | 95 | 1018.5 |
| 20260902084524 | 66 | 129 | 0.0 | 4.0 | 0.00 | 0.37 | 0.00 | 95 | 1018.2 |
| 20260902083032 | 66 | 119 | 2.0 | 7.0 | 0.00 | 0.37 | 0.00 | 95 | 1018.3 |
| 20260902081524 | 66 | 128 | 3.0 | 7.0 | 0.00 | 0.37 | 0.00 | 95 | 1018.2 |
| 20260902080025 | 66 | 146 | 1.0 | 5.0 | 0.00 | 0.37 | 0.00 | 95 | 1018.2 |
| 20260902074518 | 66 | 142 | 3.0 | 7.0 | 0.00 | 0.43 | 0.00 | 95 | 1018.2 |
| 20260902073028 | 66 | 129 | 2.0 | 6.0 | 0.00 | 0.43 | 0.00 | 96 | 1018.1 |
| 20260902071518 | 67 | 138 | 0.0 | 3.0 | 0.00 | 0.43 | 0.00 | 96 | 1017.9 |
| 20260902070016 | 67 | 139 | 0.0 | 5.0 | 0.00 | 0.43 | 0.00 | 96 | 1018.1 |
| 20260902064516 | 67 | 147 | 0.0 | 0.0 | 0.00 | 0.43 | 0.00 | 96 | 1018.2 |
| 20260902063017 | 67 | 117 | 0.0 | 4.0 | 0.00 | 0.43 | 0.00 | 96 | 1018.3 |
| 20260902061515 | 67 | 140 | 0.0 | 2.0 | 0.00 | 0.43 | 0.00 | 97 | 1018.2 |
| 20260902060017 | 67 | 157 | 0.0 | 6.0 | 0.00 | 0.43 | 0.00 | 97 | 1018.1 |
| 20260902054521 | 67 | 123 | 0.0 | 0.0 | 0.00 | 0.43 | 0.00 | 97 | 1018.1 |
| 20260902053011 | 67 | 122 | 0.0 | 4.0 | 0.00 | 0.43 | 0.00 | 97 | 1017.9 |
| 20260902051510 | 66 | 128 | 2.0 | 5.0 | 0.00 | 0.43 | 0.00 | 97 | 1017.8 |
| 20260902050009 | 66 | 141 | 0.0 | 0.0 | 0.00 | 0.43 | 0.00 | 98 | 1017.8 |
| 20260902044507 | 66 | 141 | 0.0 | 0.0 | 0.00 | 0.43 | 0.00 | 98 | 1017.6 |
| 20260902043008 | 67 | 141 | 0.0 | 0.0 | 0.00 | 0.43 | 0.00 | 98 | 1017.8 |
| 20260902041505 | 66 | 141 | 0.0 | 1.0 | 0.00 | 0.43 | 0.00 | 98 | 1017.6 |
| 20260902040006 | 66 | 141 | 0.0 | 2.0 | 0.00 | 0.43 | 0.43 | 98 | 1017.4 |
| 20260902034502 | 66 | 141 | 0.0 | 1.0 | 0.00 | 0.43 | 0.43 | 98 | 1017.4 |
| 20260902033001 | 66 | 141 | 0.0 | 0.0 | 0.00 | 0.43 | 0.43 | 99 | 1017.4 |
| 20260902031501 | 66 | 141 | 0.0 | 0.0 | 0.00 | 0.43 | 0.43 | 99 | 1017.4 |
| 20260902030104 | 66 | 141 | 0.0 | 0.0 | 0.00 | 0.43 | 0.43 | 98 | 1017.3 |
| 20260902024606 | 66 | 141 | 0.0 | 2.0 | 0.00 | 0.43 | 0.43 | 98 | 1017.4 |
| 20260902023101 | 66 | 141 | 0.0 | 0.0 | 0.00 | 0.43 | 0.43 | 98 | 1017.4 |
| 20260902021600 | 66 | 140 | 0.0 | 4.0 | 0.00 | 0.43 | 0.43 | 98 | 1017.3 |
| 20260902014558 | 67 | 144 | 0.0 | 0.0 | 0.00 | 0.43 | 0.43 | 97 | 1017.3 |
| 20260902013057 | 67 | 144 | 0.0 | 3.0 | 0.00 | 0.43 | 0.43 | 97 | 1017.5 |
| 20260902011557 | 67 | 146 | 0.0 | 0.0 | 0.00 | 0.43 | 0.43 | 97 | 1017.3 |
| 20260902010056 | 67 | 146 | 0.0 | 0.0 | 0.00 | 0.43 | 0.43 | 97 | 1017.0 |